Regional Weather Roundup
Issued by NWS Midland/Odessa, TX

Skip options and go directly to product.
Home | Oldest Version | Previous Version | Current Version | All | Graphics & Text | Save Text | Print | Product List | Glossary On

Skip product version selection by date and time.   
419
ASUS44 KMAF 250010
RWRMAF
MIDLAND AREA WEATHER ROUNDUP
NATIONAL WEATHER SERVICE MIDLAND TX
700 PM CDT THU APR 24 2014

...IN SOUTHWEST TEXAS AND SOUTHEAST NEW MEXICO...

CITY           SKY/WX    TMP DP  RH WIND       PRES   REMARKS
ALPINE         SUNNY     79  16   9 E8        30.07S
ANDREWS        FAIR      77  25  14 CALM      29.98S
ARTESIA        MOSUNNY   75  23  14 E5        29.95F
BIG SPRING     SUNNY     82  27  13 SW7       29.97S
CARLSBAD       MOSUNNY   79  20  11 E12       29.93F
DRYDEN           N/A     91  17   6 N9G20     29.88S
FORT STOCKTON  SUNNY     82  19   9 N8        29.95F
GUAD PASS      SUNNY     75  11   8 SW12      30.06S
HOBBS          MOSUNNY   75  21  13 NE5       29.99S
MARFA          SUNNY     79  19  11 W6        30.06S
MIDLAND AIRPK  SUNNY     81  24  12 NW7       29.96S
MIDLAND INTL   SUNNY     81  26  13 CALM      29.96S
ODESSA         SUNNY     81  21  11 MISG      29.97S
PECOS          SUNNY     82  27  13 E6        29.93S
PRESIDIO       FAIR      89  17   7 CALM      29.89S
SEMINOLE       MOSUNNY   76  26  16 CALM      29.99S
SNYDER         SUNNY     78  21  12 N3        29.95S
WINK           SUNNY     82  21  10 VRB5      29.93S
$$
...OTHER STATIONS IN TEXAS...

CITY           SKY/WX    TMP DP  RH WIND       PRES   REMARKS
ABILENE        SUNNY     80  31  16 N10       29.91S
AMARILLO       MOSUNNY   71  13  10 W6        29.96S
AUSTIN         MOSUNNY   84  65  52 E6        29.81R
BROWNSVILLE    PTSUNNY   79  72  78 SE14      29.80R
CORPUS CHRISTI MOSUNNY   80  69  69 SE14      29.81S
DALLAS FTW     MOSUNNY   80  44  27 N15       29.84R
DEL RIO        SUNNY     95  16   5 N9G20     29.80R
EL PASO        MOSUNNY   80  11   7 W9        29.96S
HOUSTON INT    PTSUNNY   81  65  58 S5        29.83S
LUBBOCK        PTSUNNY   73  21  14 CALM      29.97R
SAN ANGELO     SUNNY     84  27  12 N9        29.90S
SAN ANTONIO    MOSUNNY   86  63  45 E12       29.82R
WACO           SUNNY     83  43  24 N9        29.84R
WICHITA FALLS  NOT AVBL
$$
...OTHER LOCATIONS IN NEW MEXICO...

CITY           SKY/WX    TMP DP  RH WIND       PRES   REMARKS
ALAMAGORDO     PTSUNNY   77   7   6 S6        29.99S
ALBUQUERQUE    MOSUNNY   70   7   8 SE5       30.00F
CANNON AFB     CLOUDY    69  26  20 S8        29.98F
CLOVIS         CLOUDY    70  25  18 SW10      30.01F
HOLLOMAN AFB   PTSUNNY   77   5   6 S3        29.96F
ROSWELL        MOSUNNY   77  23  13 SE14      29.95S
RUIDOSO        PTSUNNY   64  -2   7 NW6       30.11F
SANTA FE       PTSUNNY   66 -18   3 NW14      30.03S
TRUTH OR CONSE SUNNY     78   7   6 S18G25    29.95F
TUCUMCARI      PTSUNNY   74  21  13 S15G23    29.90F
$$

USA.gov is the U.S. government's official web portal to all federal, state and local government web resources and services.